Погода в Лысогорской

Россия / Ставропольский край     44°06′17″N   43°16′28″E
темп.,
°C
ветер,
м/с
пор.,
м/с
влажн.,
%
обл.,
%
осадки,
мм/ч
давл.,
гПа
погр.,
м
23 апреля, пт
пт2300:00+8зюз2395100 8.8 1023180
03:00+9зсз3893100 10.3 1023570
06:00+9зсз278987 0.0 1025468
09:00+12зсз35634 0.0 10241018
12:00+15ссз334567 0.0 10231906
15:00+16в124244 0.0 10221848
18:00+15вюв225524 0.0 102234
21:00+11юв226711 0.0 102115
24 апреля, сб
сб2400:00+9юв2274100 0.0 101917
03:00+10ю2275100 0.0 101917
06:00+10ююз1268100 0.0 101923
09:00+12сз3469100 0.1 1019394
12:00+13ссз2268100 0.1 1020585
15:00+15св115399 0.1 10191078
18:00+14в1160100 0.0 102026
21:00+13ю116497 0.0 102111
25 апреля, вс
вс2500:00+11с4680100 0.0 1022400
03:00+10ссв3490100 0.3 1022338
06:00+9св2388100 0.3 1022378
09:00+9в3487100 0.3 1022551
12:00+10вюв5687100 0.1 1020796
15:00+11вюв4783100 0.3 1018936
18:00+12вюв4881100 0.0 1016470
21:00+11в2584100 0.0 1015159
26 апреля, пн
пн2600:00+10ююв1277100 0.1 101583
03:00+8вюв3785100 0.1 1013235
06:00+7ю2689100 0.0 1013233
09:00+11вюв4672100 0.0 1010496
12:00+16в33598 0.0 1008983
15:00+16с4461100 0.0 10081234
18:00+11сз3693100 2.4 1011378
21:00+10сз4892100 3.8 1014605
27 апреля, вт
вт2700:00+9сз3890100 3.6 1015597
03:00+8сз3890100 3.8 1016822
06:00+7ссз4691100 0.6 1018525
09:00+7зсз1277100 0.9 1020387
12:00+10юв335952 0.0 1018792
15:00+13вюв335621 0.0 10161146
18:00+11юв356697 0.0 1017265
21:00+10ююв226893 0.0 101865